Terminal Aerodrome Forecast
Issued by NWS

Current Version | Previous Version | Text Only | Print | Product List | Glossary Off
Versions: 1 2 3 4 5 6 7 8 9 10 11 12 13 14 15 16 17 18 19 20 21 22 23 24 25 26 27 28 29 30 31 32 33 34 35 36 37 38 39 40 41 42 43 44 45 46 47 48 49 50

000
FTUS41 KRNK 042321
TAFLWB
TAF
KLWB 042321Z 0500/0524 22003KT 1/4SM -RA FG OVC002
     FM050100 34002KT 2SM -RA BR OVC004
     FM050400 30004KT 2SM -RAPL BR OVC004
     FM050900 33005KT 2SM -SNPL BR OVC002
     FM051300 32006KT 1SM -SN BR OVC004
     FM051600 33007KT 2SM -SN BR OVC008
     FM052300 33006KT 5SM BR OVC015=

USA.gov is the U.S. government's official web portal to all federal, state and local government web resources and services.